Starlink 4390

operational
NORAD ID: 53653 Int'l Des: 2022-105 Owner: SPXS Country: US Constellation: starlink
LEOCIRCULARRETROGRADESSO

Starlink 4390について

説明を読み込み中...

リアルタイム位置

3D地球を読み込み中...

次回通過

高度履歴

Altitude vs Time

uPlot chart will show altitude changes over time

軌道要素

1 53653U 22105F 25306.41671435 .00001293 00000-0 10517-3 0 9991
2 53653 97.6032 185.5717 0002826 81.1660 278.9884 15.01258870174134
Epoch: Nov 2, 2025 • Age: 19 hours

現在のステータス

高度 564.6 km
速度 7.58 km/s
衛星直下点 19.45°N, 61.69°E
打ち上げ日 Aug 31, 2022
運用期間 3.1 years
タイプ internet

技術仕様

分類 Payload
質量 300.00 kg
乾燥質量 290.00 kg
総質量 300.00 kg
長さ 0.20 m
直径 2.80 m
スパン 9.00 m
形状 Box + pan
製造者 SPXS
バスタイプ Starlink
フェーズステータス In Orbit
所有者/国 SPXS/US

大規模コンステレーション

Loading constellations...